User: anonymous   Login
Location: Hyderabad
(17.3833°N, 78.4667°E)
Time: 08:41:27
(UTC+05:30)
Language:

H-2A R/B - Orbit

View from above orbital plane
View from above orbital plane
View from above satellite
View from above satellite

Ground track
Ground track

The orbit data is extracted from the following two-line orbital elements,

1 26899U 01038B   18196.59751479  .00000021  00000-0  71978-4 0  9997
2 26899  27.9547 265.0482 7107497  89.1705 344.1758  2.48964381146291
Epoch (UTC): 15 July 2018 14:20:25
Eccentricity: 0.7107497
inclination: 27.9547°
perigee height: 273 km
apogee height: 32961 km
right ascension of ascending node: 265.0482°
argument of perigee: 89.1705°
revolutions per day: 2.48964381
mean anomaly at epoch: 344.1758°
orbit number at epoch: 14629

The dashed part of the orbit path shows where the satellite is in the earth's shadow,  

DLR